{"data":{"norad_id":65259,"intl_designator":"2025-180A","name":"2025-180A","alt_names":[],"object_type":"PAYLOAD","status":"ACTIVE","operator":null,"country":"TBD","launch_date":"2025-08-19","launch_site_code":"JSC","launch_vehicle":null,"mission":null,"orbit_class":"UNKNOWN","rcs_meters":null,"size_class":null,"mass_kg":null,"dimensions":null,"purposes":[],"wikipedia_slug":null,"has_3d_model":false,"image_url":null,"decayed_at":null,"tle_current":{"epoch":"2026-09-20T18:56:45.413664Z","epoch_age_seconds":137245,"freshness":"FRESH","line1":"1 65259U 25180A   26263.78941451  .00010442  00000+0  41642-3 0  9991","line2":"2 65259  97.5302  32.9892 0011095 346.0393  14.0536 15.25328262 60351","mean_motion":15.25328262,"eccentricity":0.0011095,"inclination_deg":97.5302,"raan_deg":32.9892,"arg_perigee_deg":346.0393,"mean_anomaly_deg":14.0536,"bstar":0.00041642,"rev_number":6035,"period_min":94.405908280483,"perigee_km":482.1799269104,"apogee_km":497.41987889795,"semimajor_km":6867.9369029042,"source":"CELESTRAK","updated_at":"2026-09-22T09:00:30.244171Z"}}}